OAS308 SKCL-MPTO

Flight info

Callsign OAS308
Flight time 1h 6m
Altitude 24000
Route SIGIR6C SIGIR A321 ASIKO/N0448F340 UW90 BUSMO/N0449F360 DCT IRATA DCT SIRIL SIRIL3B
Aircraft B738/M-SDE2E3FGHIRWXY/LB1

Departure

Time 2026-04-24 00:19
Airport Alfonso Bonilla Aragon International Airport (SKCL)

Arrival

Time 2026-04-24 01:26
Airport Tocumen International Airport (MPTO)
Time Latitude Longitude Altitude Speed Heading
2026-04-24 00:01 3.53709 -76.38599 3161 ft 0 kts 250°
2026-04-24 00:11 3.53712 -76.38602 3136 ft 1 kts 301°
2026-04-24 00:12 3.53721 -76.38591 3162 ft 4 kts 70°
2026-04-24 00:12 3.53728 -76.38560 3161 ft 5 kts 98°
2026-04-24 00:12 3.53712 -76.38531 3162 ft 5 kts 130°
2026-04-24 00:12 3.53688 -76.38509 3161 ft 5 kts 142°
2026-04-24 00:13 3.53661 -76.38490 3161 ft 5 kts 144°
2026-04-24 00:13 3.53635 -76.38472 3163 ft 5 kts 144°
2026-04-24 00:13 3.53605 -76.38460 3163 ft 5 kts 167°
2026-04-24 00:13 3.53574 -76.38460 3161 ft 4 kts 186°
2026-04-24 00:14 3.53544 -76.38465 3161 ft 4 kts 190°
2026-04-24 00:14 3.53514 -76.38470 3161 ft 4 kts 190°
2026-04-24 00:14 3.53485 -76.38476 3161 ft 4 kts 190°
2026-04-24 00:14 3.53457 -76.38481 3162 ft 4 kts 190°
2026-04-24 00:15 3.53428 -76.38486 3161 ft 4 kts 190°
2026-04-24 00:15 3.53401 -76.38491 3163 ft 4 kts 190°
2026-04-24 00:15 3.53374 -76.38496 3161 ft 4 kts 190°
2026-04-24 00:15 3.53348 -76.38501 3163 ft 4 kts 190°
2026-04-24 00:16 3.53337 -76.38502 3162 ft 0 kts 189°
2026-04-24 00:16 3.53336 -76.38503 3162 ft 0 kts 189°
2026-04-24 00:17 3.53332 -76.38503 3161 ft 2 kts 189°
2026-04-24 00:17 3.53325 -76.38504 3161 ft 0 kts 189°
2026-04-24 00:17 3.53308 -76.38507 3161 ft 5 kts 189°
2026-04-24 00:17 3.53254 -76.38516 3161 ft 11 kts 189°
2026-04-24 00:18 3.53166 -76.38530 3162 ft 15 kts 189°
2026-04-24 00:18 3.53049 -76.38553 3161 ft 19 kts 190°
2026-04-24 00:18 3.52989 -76.38497 3161 ft 13 kts 103°
2026-04-24 00:18 3.52996 -76.38400 3160 ft 11 kts 49°
2026-04-24 00:19 3.53112 -76.38376 3160 ft 39 kts 10°
2026-04-24 00:19 3.53650 -76.38285 3162 ft 115 kts 10°
2026-04-24 00:19 3.54648 -76.38108 3261 ft 168 kts
2026-04-24 00:19 3.55809 -76.37910 4126 ft 169 kts
2026-04-24 00:20 3.56998 -76.37706 4850 ft 178 kts
2026-04-24 00:20 3.58264 -76.37479 5407 ft 198 kts 10°
2026-04-24 00:20 3.59697 -76.37217 5649 ft 218 kts 10°
2026-04-24 00:20 3.61221 -76.36936 6050 ft 226 kts 10°
2026-04-24 00:21 3.62777 -76.36648 6554 ft 228 kts 10°
2026-04-24 00:21 3.64347 -76.36357 7032 ft 231 kts 10°
2026-04-24 00:21 3.65932 -76.36063 7512 ft 233 kts 10°
2026-04-24 00:21 3.67549 -76.35911 7960 ft 236 kts 351°
2026-04-24 00:22 3.69040 -76.36554 8433 ft 236 kts 321°
2026-04-24 00:22 3.70119 -76.37785 8898 ft 238 kts 298°
2026-04-24 00:22 3.70660 -76.39328 9346 ft 240 kts 282°
2026-04-24 00:22 3.71008 -76.40968 9827 ft 242 kts 281°
2026-04-24 00:23 3.71342 -76.42621 10273 ft 243 kts 281°
2026-04-24 00:23 3.71683 -76.44276 10737 ft 243 kts 281°
2026-04-24 00:23 3.72032 -76.45935 11171 ft 244 kts 281°
2026-04-24 00:23 3.72378 -76.47606 11617 ft 245 kts 280°
2026-04-24 00:24 3.72675 -76.49289 12055 ft 246 kts 279°
2026-04-24 00:24 3.72965 -76.50986 12488 ft 247 kts 279°
2026-04-24 00:24 3.73256 -76.52681 12950 ft 248 kts 279°
2026-04-24 00:24 3.73552 -76.54391 13364 ft 250 kts 279°
2026-04-24 00:25 3.73852 -76.56112 13768 ft 252 kts 279°
2026-04-24 00:25 3.74154 -76.57842 14144 ft 253 kts 279°
2026-04-24 00:25 3.74541 -76.59564 14481 ft 256 kts 292°
2026-04-24 00:25 3.75630 -76.60976 14794 ft 261 kts 320°
2026-04-24 00:26 3.77176 -76.62002 14926 ft 275 kts 328°
2026-04-24 00:26 3.78882 -76.62983 15028 ft 291 kts 329°
2026-04-24 00:26 3.80683 -76.63991 15118 ft 308 kts 329°
2026-04-24 00:26 3.82615 -76.65073 15199 ft 329 kts 329°
2026-04-24 00:27 3.84668 -76.66231 15354 ft 348 kts 329°
2026-04-24 00:27 3.86829 -76.67458 15543 ft 364 kts 329°
2026-04-24 00:27 3.89047 -76.68725 16009 ft 370 kts 329°
2026-04-24 00:27 3.91291 -76.70008 16597 ft 372 kts 329°
2026-04-24 00:28 3.93547 -76.71303 17164 ft 375 kts 329°
2026-04-24 00:28 3.95823 -76.72611 17687 ft 379 kts 329°
2026-04-24 00:28 3.98126 -76.73936 18198 ft 384 kts 329°
2026-04-24 00:28 4.00448 -76.75274 18662 ft 386 kts 329°
2026-04-24 00:29 4.02782 -76.76618 19156 ft 388 kts 329°
2026-04-24 00:29 4.05128 -76.77968 19656 ft 389 kts 329°
2026-04-24 00:29 4.07486 -76.79327 20137 ft 391 kts 329°
2026-04-24 00:29 4.09855 -76.80691 20584 ft 394 kts 329°
2026-04-24 00:30 4.12205 -76.82045 21051 ft 396 kts 329°
2026-04-24 00:30 4.14597 -76.83423 21506 ft 398 kts 329°
2026-04-24 00:30 4.17004 -76.84809 21977 ft 400 kts 329°
2026-04-24 00:30 4.19425 -76.86205 22424 ft 402 kts 329°
2026-04-24 00:31 4.21862 -76.87609 22802 ft 406 kts 329°
2026-04-24 00:31 4.24326 -76.89029 23171 ft 410 kts 329°
2026-04-24 00:31 4.26804 -76.90461 23593 ft 412 kts 329°
2026-04-24 00:31 4.29290 -76.91903 23882 ft 414 kts 329°
2026-04-24 00:32 4.31774 -76.93345 23897 ft 411 kts 329°
2026-04-24 00:32 4.34263 -76.94791 23916 ft 415 kts 329°
2026-04-24 00:32 4.36761 -76.96242 23914 ft 415 kts 329°
2026-04-24 00:32 4.39254 -76.97690 23916 ft 414 kts 329°
2026-04-24 00:33 4.41747 -76.99138 23917 ft 413 kts 329°
2026-04-24 00:33 4.44234 -77.00582 23919 ft 413 kts 329°
2026-04-24 00:33 4.46720 -77.02026 23928 ft 413 kts 329°
2026-04-24 00:33 4.49213 -77.03474 23927 ft 413 kts 329°
2026-04-24 00:34 4.51670 -77.04901 23925 ft 413 kts 329°
2026-04-24 00:34 4.54154 -77.06344 23925 ft 413 kts 329°
2026-04-24 00:34 4.56645 -77.07791 23924 ft 414 kts 329°
2026-04-24 00:34 4.59138 -77.09240 23924 ft 414 kts 329°
2026-04-24 00:35 4.61633 -77.10690 23931 ft 414 kts 329°
2026-04-24 00:35 4.64129 -77.12140 23931 ft 415 kts 329°
2026-04-24 00:35 4.66624 -77.13589 23929 ft 415 kts 329°
2026-04-24 00:35 4.69124 -77.15042 23930 ft 415 kts 329°
2026-04-24 00:36 4.71620 -77.16493 23931 ft 415 kts 329°
2026-04-24 00:36 4.74125 -77.17949 23931 ft 415 kts 329°
2026-04-24 00:36 4.76639 -77.19411 23923 ft 419 kts 329°
2026-04-24 00:36 4.79197 -77.20898 23940 ft 430 kts 329°
2026-04-24 00:37 4.81812 -77.22419 23948 ft 440 kts 329°
2026-04-24 00:37 4.84489 -77.23975 23949 ft 449 kts 329°
2026-04-24 00:37 4.87210 -77.25558 23947 ft 457 kts 329°
2026-04-24 00:37 4.89945 -77.27149 23944 ft 463 kts 329°
2026-04-24 00:38 4.92789 -77.28804 23943 ft 469 kts 329°
2026-04-24 00:38 4.95594 -77.30436 23941 ft 475 kts 329°
2026-04-24 00:38 4.98499 -77.32125 23941 ft 479 kts 329°
2026-04-24 00:38 5.01394 -77.33809 23939 ft 483 kts 329°
2026-04-24 00:39 5.04273 -77.35485 23940 ft 486 kts 329°
2026-04-24 00:39 5.07205 -77.37190 23940 ft 488 kts 329°
2026-04-24 00:39 5.10148 -77.38903 23936 ft 488 kts 329°
2026-04-24 00:39 5.13096 -77.40618 23936 ft 488 kts 329°
2026-04-24 00:40 5.16033 -77.42328 23938 ft 488 kts 329°
2026-04-24 00:40 5.18976 -77.44041 23940 ft 488 kts 329°
2026-04-24 00:40 5.21915 -77.45752 23965 ft 487 kts 329°
2026-04-24 00:40 5.24840 -77.47455 24140 ft 485 kts 329°
2026-04-24 00:41 5.27755 -77.49153 24296 ft 484 kts 329°
2026-04-24 00:41 5.30668 -77.50850 24461 ft 484 kts 329°
2026-04-24 00:41 5.33578 -77.52545 24624 ft 483 kts 329°
2026-04-24 00:41 5.36485 -77.54238 24789 ft 483 kts 329°
2026-04-24 00:42 5.39390 -77.55931 24957 ft 483 kts 329°
2026-04-24 00:42 5.42300 -77.57626 25126 ft 483 kts 329°
2026-04-24 00:42 5.45172 -77.59300 25296 ft 483 kts 329°
2026-04-24 00:42 5.48080 -77.60995 25468 ft 483 kts 329°
2026-04-24 00:43 5.50982 -77.62686 25634 ft 483 kts 329°
2026-04-24 00:43 5.53889 -77.64381 25806 ft 483 kts 329°
2026-04-24 00:43 5.56795 -77.66076 25979 ft 483 kts 329°
2026-04-24 00:43 5.59708 -77.67774 26152 ft 484 kts 329°
2026-04-24 00:44 5.62617 -77.69471 26330 ft 484 kts 329°
2026-04-24 00:44 5.65526 -77.71167 26506 ft 484 kts 329°
2026-04-24 00:44 5.68437 -77.72865 26684 ft 485 kts 329°
2026-04-24 00:44 5.71356 -77.74568 26863 ft 485 kts 329°
2026-04-24 00:45 5.74272 -77.76270 27044 ft 485 kts 329°
2026-04-24 00:45 5.77197 -77.77976 27217 ft 486 kts 329°
2026-04-24 00:45 5.80118 -77.79681 27416 ft 486 kts 329°
2026-04-24 00:45 5.83048 -77.81391 27589 ft 487 kts 329°
2026-04-24 00:46 5.85983 -77.83104 27778 ft 487 kts 329°
2026-04-24 00:46 5.88914 -77.84815 27962 ft 488 kts 329°
2026-04-24 00:46 5.91850 -77.86530 28151 ft 488 kts 329°
2026-04-24 00:46 5.94754 -77.88225 28337 ft 489 kts 329°
2026-04-24 00:47 5.97734 -77.89965 28533 ft 489 kts 329°
2026-04-24 00:47 6.00644 -77.91665 28724 ft 489 kts 329°
2026-04-24 00:47 6.03585 -77.93384 28914 ft 490 kts 329°
2026-04-24 00:47 6.06533 -77.95106 29105 ft 490 kts 329°
2026-04-24 00:48 6.09489 -77.96833 29299 ft 491 kts 329°
2026-04-24 00:48 6.12443 -77.98559 29500 ft 491 kts 329°
2026-04-24 00:48 6.15398 -78.00286 29693 ft 491 kts 329°
2026-04-24 00:48 6.18353 -78.02013 29895 ft 491 kts 329°
2026-04-24 00:49 6.21309 -78.03742 30075 ft 492 kts 329°
2026-04-24 00:49 6.24272 -78.05474 30244 ft 492 kts 329°
2026-04-24 00:49 6.27192 -78.07182 30400 ft 492 kts 329°
2026-04-24 00:49 6.30159 -78.08917 30583 ft 493 kts 329°
2026-04-24 00:50 6.33123 -78.10651 30749 ft 493 kts 329°
2026-04-24 00:50 6.36091 -78.12387 30926 ft 494 kts 329°
2026-04-24 00:50 6.39057 -78.14123 31099 ft 494 kts 329°
2026-04-24 00:50 6.42040 -78.15868 31267 ft 495 kts 329°
2026-04-24 00:51 6.45015 -78.17609 31443 ft 495 kts 329°
2026-04-24 00:51 6.47993 -78.19353 31619 ft 496 kts 329°
2026-04-24 00:51 6.50982 -78.21102 31799 ft 496 kts 329°
2026-04-24 00:51 6.53966 -78.22850 31976 ft 497 kts 329°
2026-04-24 00:52 6.56953 -78.24599 32160 ft 497 kts 329°
2026-04-24 00:52 6.59912 -78.26332 32334 ft 498 kts 329°
2026-04-24 00:52 6.62910 -78.28088 32522 ft 498 kts 329°
2026-04-24 00:52 6.65905 -78.29844 32699 ft 499 kts 329°
2026-04-24 00:53 6.68908 -78.31603 32890 ft 499 kts 330°
2026-04-24 00:53 6.71909 -78.33362 33071 ft 500 kts 329°
2026-04-24 00:53 6.74904 -78.35141 33261 ft 500 kts 329°
2026-04-24 00:53 6.77889 -78.36941 33439 ft 500 kts 329°
2026-04-24 00:54 6.80877 -78.38755 33646 ft 501 kts 328°
2026-04-24 00:54 6.83861 -78.40570 33826 ft 501 kts 329°
2026-04-24 00:54 6.86849 -78.42385 33934 ft 504 kts 329°
2026-04-24 00:54 6.89864 -78.44214 33930 ft 506 kts 329°
2026-04-24 00:55 6.92850 -78.46023 33924 ft 494 kts 329°
2026-04-24 00:55 6.95749 -78.47776 33903 ft 478 kts 329°
2026-04-24 00:55 7.01389 -78.51188 33916 ft 474 kts 329°
2026-04-24 00:56 7.07100 -78.54644 33882 ft 483 kts 329°
2026-04-24 00:56 7.12838 -78.58118 33895 ft 482 kts 329°
2026-04-24 00:57 7.18516 -78.61557 33811 ft 465 kts 329°
2026-04-24 00:57 7.23611 -78.64643 33614 ft 441 kts 329°
2026-04-24 00:58 7.25337 -78.65688 33361 ft 434 kts 329°
2026-04-24 00:58 7.27913 -78.67249 32773 ft 430 kts 328°
2026-04-24 00:58 7.30475 -78.68803 32179 ft 427 kts 328°
2026-04-24 00:58 7.33008 -78.70338 31627 ft 423 kts 328°
2026-04-24 00:59 7.36319 -78.72345 30981 ft 415 kts 328°
2026-04-24 00:59 7.37991 -78.73359 30659 ft 411 kts 328°
2026-04-24 00:59 7.40426 -78.74836 30199 ft 406 kts 328°
2026-04-24 00:59 7.42798 -78.76275 29688 ft 401 kts 328°
2026-04-24 01:00 7.45181 -78.77720 29100 ft 396 kts 328°
2026-04-24 01:00 7.47528 -78.79165 28462 ft 393 kts 324°
2026-04-24 01:00 7.49637 -78.80879 28024 ft 384 kts 314°
2026-04-24 01:00 7.51373 -78.82858 27782 ft 371 kts 307°
2026-04-24 01:01 7.52961 -78.84888 27522 ft 365 kts 307°
2026-04-24 01:01 7.54499 -78.86883 27224 ft 356 kts 307°
2026-04-24 01:01 7.56002 -78.88835 26888 ft 349 kts 307°
2026-04-24 01:01 7.57485 -78.90752 26571 ft 343 kts 307°
2026-04-24 01:02 7.58953 -78.92643 26267 ft 344 kts 307°
2026-04-24 01:02 7.60453 -78.94571 25970 ft 357 kts 307°
2026-04-24 01:02 7.62537 -78.97244 25479 ft 367 kts 307°
2026-04-24 01:02 7.63595 -78.98598 25237 ft 362 kts 307°
2026-04-24 01:03 7.65119 -79.00546 24888 ft 354 kts 307°
2026-04-24 01:03 7.66626 -79.02471 24553 ft 346 kts 307°
2026-04-24 01:03 7.68102 -79.04357 24223 ft 339 kts 307°
2026-04-24 01:03 7.69546 -79.06202 23906 ft 332 kts 308°
2026-04-24 01:04 7.70969 -79.08021 23585 ft 328 kts 308°
2026-04-24 01:04 7.72369 -79.09811 23232 ft 324 kts 308°
2026-04-24 01:04 7.73767 -79.11598 22899 ft 327 kts 308°
2026-04-24 01:04 7.75203 -79.13436 22581 ft 341 kts 308°
2026-04-24 01:05 7.76692 -79.15342 22237 ft 347 kts 308°
2026-04-24 01:05 7.78170 -79.17232 21866 ft 339 kts 308°
2026-04-24 01:05 7.79612 -79.19076 21525 ft 331 kts 308°
2026-04-24 01:05 7.81021 -79.20878 21200 ft 323 kts 308°
2026-04-24 01:06 7.82395 -79.22635 20892 ft 315 kts 308°
2026-04-24 01:06 7.83744 -79.24362 20586 ft 311 kts 308°
2026-04-24 01:06 7.85081 -79.26073 20313 ft 312 kts 308°
2026-04-24 01:06 7.86445 -79.27819 20026 ft 323 kts 308°
2026-04-24 01:07 7.87866 -79.29639 19683 ft 335 kts 308°
2026-04-24 01:07 7.89310 -79.31488 19360 ft 335 kts 308°
2026-04-24 01:07 7.90750 -79.33333 19025 ft 334 kts 308°
2026-04-24 01:07 7.92188 -79.35174 18688 ft 334 kts 308°
2026-04-24 01:08 7.93608 -79.36992 18356 ft 333 kts 308°
2026-04-24 01:08 7.95039 -79.38825 18006 ft 332 kts 308°
2026-04-24 01:08 7.96464 -79.40651 17651 ft 331 kts 308°
2026-04-24 01:08 7.97883 -79.42469 17337 ft 328 kts 308°
2026-04-24 01:09 7.99287 -79.44269 17054 ft 325 kts 308°
2026-04-24 01:09 8.00679 -79.46053 16735 ft 323 kts 308°
2026-04-24 01:09 8.02067 -79.47833 16424 ft 321 kts 308°
2026-04-24 01:09 8.03446 -79.49601 16107 ft 319 kts 308°
2026-04-24 01:10 8.04816 -79.51357 15794 ft 318 kts 308°
2026-04-24 01:10 8.06180 -79.53106 15480 ft 317 kts 308°
2026-04-24 01:10 8.07685 -79.54719 15137 ft 316 kts 326°
2026-04-24 01:10 8.09685 -79.55591 14862 ft 314 kts 348°
2026-04-24 01:11 8.11832 -79.55737 14593 ft 313 kts 360°
2026-04-24 01:11 8.14018 -79.55710 14272 ft 315 kts
2026-04-24 01:11 8.16205 -79.55659 13983 ft 313 kts
2026-04-24 01:11 8.18386 -79.55607 13679 ft 313 kts
2026-04-24 01:12 8.20560 -79.55561 13364 ft 311 kts
2026-04-24 01:12 8.22729 -79.55520 13047 ft 309 kts
2026-04-24 01:12 8.24873 -79.55484 12750 ft 307 kts
2026-04-24 01:12 8.27008 -79.55450 12464 ft 305 kts
2026-04-24 01:13 8.29102 -79.55419 12167 ft 303 kts
2026-04-24 01:13 8.31204 -79.55389 11884 ft 300 kts
2026-04-24 01:13 8.33287 -79.55360 11609 ft 298 kts
2026-04-24 01:13 8.35363 -79.55332 11333 ft 296 kts
2026-04-24 01:14 8.37417 -79.55304 11057 ft 294 kts
2026-04-24 01:14 8.39459 -79.55276 10775 ft 293 kts
2026-04-24 01:14 8.41489 -79.55248 10508 ft 291 kts
2026-04-24 01:14 8.43510 -79.55220 10239 ft 290 kts
2026-04-24 01:15 8.45521 -79.55193 9971 ft 288 kts
2026-04-24 01:15 8.47525 -79.55166 9689 ft 287 kts
2026-04-24 01:15 8.49497 -79.55139 9403 ft 286 kts
2026-04-24 01:15 8.51481 -79.55112 9114 ft 284 kts
2026-04-24 01:16 8.53447 -79.55085 8839 ft 282 kts
2026-04-24 01:16 8.55401 -79.55059 8573 ft 280 kts
2026-04-24 01:16 8.57343 -79.55032 8295 ft 278 kts
2026-04-24 01:16 8.59269 -79.55005 8039 ft 276 kts
2026-04-24 01:17 8.61173 -79.54778 7744 ft 276 kts 12°
2026-04-24 01:17 8.63036 -79.54319 7451 ft 275 kts 14°
2026-04-24 01:17 8.64887 -79.53829 7152 ft 275 kts 14°
2026-04-24 01:17 8.66738 -79.53345 6907 ft 272 kts 14°
2026-04-24 01:18 8.68495 -79.52897 6836 ft 256 kts 13°
2026-04-24 01:18 8.70182 -79.52474 6735 ft 243 kts 13°
2026-04-24 01:18 8.71778 -79.52081 6644 ft 230 kts 13°
2026-04-24 01:18 8.73296 -79.51710 6492 ft 220 kts 13°
2026-04-24 01:19 8.74780 -79.51349 6197 ft 218 kts 13°
2026-04-24 01:19 8.76253 -79.50991 5887 ft 217 kts 13°
2026-04-24 01:19 8.77714 -79.50636 5586 ft 215 kts 13°
2026-04-24 01:19 8.79169 -79.50292 5272 ft 214 kts 12°
2026-04-24 01:20 8.80622 -79.49984 4968 ft 213 kts 11°
2026-04-24 01:20 8.82069 -79.49682 4664 ft 211 kts 11°
2026-04-24 01:20 8.83502 -79.49381 4398 ft 208 kts 11°
2026-04-24 01:20 8.84894 -79.49088 4162 ft 202 kts 11°
2026-04-24 01:21 8.86255 -79.48802 3997 ft 193 kts 11°
2026-04-24 01:21 8.87591 -79.48520 3495 ft 205 kts 11°
2026-04-24 01:21 8.89011 -79.48206 3043 ft 211 kts 15°
2026-04-24 01:21 8.90321 -79.47550 2661 ft 211 kts 31°
2026-04-24 01:22 8.91563 -79.46803 2522 ft 199 kts 28°
2026-04-24 01:22 8.92707 -79.46125 2482 ft 183 kts 28°
2026-04-24 01:22 8.93789 -79.45501 2321 ft 178 kts 27°
2026-04-24 01:22 8.94854 -79.44896 2153 ft 173 kts 29°
2026-04-24 01:23 8.95882 -79.44313 2040 ft 163 kts 29°
2026-04-24 01:23 8.96866 -79.43754 1831 ft 161 kts 29°
2026-04-24 01:23 8.97835 -79.43203 1634 ft 158 kts 29°
2026-04-24 01:23 8.98788 -79.42661 1422 ft 157 kts 29°
2026-04-24 01:24 8.99739 -79.42122 1209 ft 156 kts 29°
2026-04-24 01:24 9.00683 -79.41584 1002 ft 155 kts 30°
2026-04-24 01:24 9.01624 -79.41041 766 ft 156 kts 27°
2026-04-24 01:24 9.02583 -79.40545 559 ft 153 kts 30°
2026-04-24 01:25 9.03496 -79.39987 328 ft 154 kts 31°
2026-04-24 01:25 9.04420 -79.39460 162 ft 154 kts 30°
2026-04-24 01:25 9.05339 -79.38932 34 ft 144 kts 30°
2026-04-24 01:25 9.06098 -79.38502 30 ft 76 kts 29°
2026-04-24 01:26 9.06377 -79.38377 29 ft 18 kts 359°
2026-04-24 01:26 9.06500 -79.38379 29 ft 17 kts 359°
2026-04-24 01:26 9.06609 -79.38382 29 ft 11 kts 349°
2026-04-24 01:26 9.06653 -79.38416 29 ft 6 kts 296°
2026-04-24 01:27 9.06659 -79.38456 29 ft 6 kts 271°
2026-04-24 01:27 9.06669 -79.38493 29 ft 6 kts 302°
2026-04-24 01:27 9.06690 -79.38527 29 ft 6 kts 302°
2026-04-24 01:27 9.06706 -79.38553 29 ft 0 kts 302°
2026-04-24 01:28 9.06707 -79.38555 29 ft 0 kts 302°